EUTELSAT 113 WEST A 1 29162U 06020A 21065.60192359 -.00000053 00000-0 00000-0 0 9996 2 29162 0.0456 286.6133 0003126 72.4689 269.1321 1.00272426 54146 THAICOM 5 1 29163U 06020B 21065.50136000 .00000033 00000-0 00000-0 0 9994 2 29163 1.0768 95.3639 0001263 313.9000 12.8334 0.99201039 54113 ARIANE 5 DEB [SYLDA] 1 29164U 06020C 21065.39249944 .00034251 00000-0 22730-2 0 9999 2 29164 6.7870 206.4321 4686117 60.6606 338.0164 6.21709243248415 ARIANE 5 R/B 1 29165U 06020D 21065.52694327 .00015897 00000-0 75394-3 0 9994 2 29165 6.7814 189.3505 5739312 127.9858 299.0707 4.50507349157321